Overview Statistics Trail Chart Weather Telemetry Raw packets
 

This is the latest recevied weather packets stored in our database for station/object W5ITZ. If no packets are shown the sender has not sent any weather packets the latest 10 day(s).

<< 52 53 54 55 56 57 58 >>
Time Temp. Humidity Pressure Rain* Wind** Luminosity Snow
1787872363 34.44° C 50% 1011.4 hPa 0 mm - 190 W/m² -
1787872063 35° C 49% 1011.3 hPa 0 mm - 208 W/m² -
1787871758 34.44° C 49% 1011.6 hPa 0 mm - 226 W/m² -
1787871453 34.44° C 49% 1011.4 hPa 0 mm - 247 W/m² -
1787871147 35° C 48% 1011.5 hPa 0 mm - 264 W/m² -
1787870842 35° C 49% 1011.5 hPa 0 mm - 282 W/m² -
1787870537 35° C 49% 1011.2 hPa 0 mm - 300 W/m² -
1787870232 35° C 49% 1011.4 hPa 0 mm - 319 W/m² -
1787869927 35° C 49% 1011.4 hPa 0 mm - 339 W/m² -
1787869626 35° C 49% 1011.4 hPa 0 mm - 358 W/m² -
1787869322 35° C 49% 1011.6 hPa 0 mm - 387 W/m² -
1787869021 35.56° C 50% 1011.6 hPa 0 mm - 438 W/m² -
1787868719 35.56° C 49% 1011.6 hPa 0 mm - 458 W/m² -
1787868417 35.56° C 50% 1011.7 hPa 0 mm - 472 W/m² -
1787868107 35.56° C 50% 1011.6 hPa 0 mm - 530 W/m² -
1787867802 35.56° C 51% 1011.9 hPa 0 mm - 525 W/m² -
1787867498 35.56° C 51% 1011.7 hPa 0 mm - 521 W/m² -
1787867198 35.56° C 51% 1011.9 hPa 0 mm - 529 W/m² -
1787866893 36.11° C 50% 1011.8 hPa 0 mm - 536 W/m² -
1787866588 35.56° C 50% 1011.9 hPa 0 mm - 549 W/m² -
1787866286 36.11° C 49% 1012 hPa 0 mm - 564 W/m² -
1787865982 36.67° C 47% 1012.1 hPa 0 mm - 582 W/m² -
1787865678 36.67° C 48% 1012.1 hPa 0 mm - 601 W/m² -
1787865377 36.67° C 47% 1012.3 hPa 0 mm - 626 W/m² -
1787865072 36.67° C 48% 1012.2 hPa 0 mm - 644 W/m² -

* Rain latest hour (hover to see other rain measurements)
** Current wind speed in m/s (hover to see current wind gust speed)